User: anonymous   Login
Location: Unspecified
(0.0000°N, 0.0000°E)
Time: 00:00:20
(UTC+00:00)
Language:

ZY 3 2 - Orbit

View from above orbital plane
View from above orbital plane
View from above satellite
View from above satellite

Ground track
Ground track

The orbit is defined by the following mean orbital elements,

1 41556U          26145.62970102 +.00000000 +00000-0 +23688-3 0 00009
2 41556  97.3838 221.8358 0012999  15.2940 344.8687 15.21219720    01
Epoch (UTC): 25 May 2026 15:06:46
Eccentricity: 0.0012999
inclination: 97.3838°
perigee height: 493 km
apogee height: 511 km
right ascension of ascending node: 221.8358°
argument of perigee: 15.2940°
revolutions per day: 15.21219720
mean anomaly at epoch: 344.8687°

The dashed part of the orbit path shows where the satellite is in the earth's shadow,  

DLR